Flag for U.S.A. Weather past 2 weeks in Denver, Colorado, U.S.A.

Now
65 °F

Broken clouds.


Feels Like: 65 °F
Forecast: 59 / 86 °F
Wind: 6 mph from Southeast

Location: Buckley Air Force Base

Current Time: Aug 31, 2015 at 8:38:27 PM

Latest Report: Aug 31, 2015 at 7:58 PM


Visibility: 10 mi

Pressure: 29.97 "Hg (24.86 "Hg at 1593m altitude)

Humidity: 71%

Dew point: 55 °F

Location of DenverLocation

Historic Weather in Denver — Graph

°F

Denver temperature yesterday

Maximum temperature yesterday: 92 °F (at 4:58 PM)
Minimum temperature yesterday: 65 °F (at 6:58 AM)
Average temperature yesterday: 78 °F

Past Weeks' High & Low Weather Summary

 TemperatureHumidityPressure
High94 °F (Aug 25, 3:58 PM)100% (Aug 18, 1:58 AM)30.21 "Hg (Aug 18, 1:58 AM)
Low45 °F (Aug 23, 5:58 AM)11% (Aug 21, 12:58 PM)29.65 "Hg (Aug 21, 4:58 PM)
Average70 °F46%29.93 "Hg
* Reported Aug 16 6:58 PM — Aug 31 6:58 PM, Denver, Weather by CustomWeather, © 2015

Note: Actual official high and low records may vary slightly from our data, if they occured in-between our weather recording intervals... More about our weather records

Advertising

Denver weather history for previous 24 hours

 ConditionsComfort  
Time TempWeatherWind HumidityBarometerVisibility
6:58 PM
Mon, Aug 31
69 °FBroken clouds.7 mph59%29.96 "Hg10 mi
5:58 PM68 °FPartly sunny.8 mph56%29.98 "Hg10 mi
4:58 PM69 °FThundershowers. Broken clouds.21 mph53%29.94 "Hg10 mi
2:58 PM83 °FPartly sunny.No wind24%29.84 "Hg10 mi
1:58 PM85 °FBroken clouds.7 mph23%29.85 "Hg10 mi
12:58 PM82 °FPartly sunny.2 mph27%29.88 "Hg10 mi
11:58 AM80 °FPartly sunny.9 mph29%29.90 "Hg10 mi
10:58 AM77 °FPartly sunny.6 mph34%29.91 "Hg10 mi
9:58 AM75 °FPartly sunny.6 mph37%29.91 "Hg10 mi
8:58 AM74 °FBroken clouds.6 mph38%29.89 "Hg10 mi
7:58 AM65 °FPartly sunny.6 mph58%29.88 "Hg10 mi
6:58 AM66 °FPassing clouds.7 mph50%29.85 "Hg10 mi
5:58 AM65 °FPassing clouds.5 mph51%29.81 "Hg10 mi
4:58 AM67 °FPassing clouds.No wind45%29.79 "Hg10 mi
3:58 AM67 °FPassing clouds.2 mph46%29.79 "Hg10 mi
2:58 AM70 °FPassing clouds.9 mph41%29.78 "Hg10 mi
1:58 AM72 °FPassing clouds.9 mph39%29.76 "Hg10 mi
12:58 AM72 °FPassing clouds.9 mph37%29.75 "Hg10 mi
11:58 PM
Sun, Aug 30
74 °FPassing clouds.10 mph37%29.76 "Hg10 mi
10:58 PM75 °FPartly cloudy.8 mph31%29.77 "Hg10 mi
9:58 PM80 °FPartly cloudy.9 mph25%29.75 "Hg10 mi
8:58 PM80 °FPassing clouds.12 mph24%29.75 "Hg10 mi
Weather by CustomWeather, © 2015

See weather overviewHow to use our weather pages